User: anonymous   Login
Location: Sunrise Point
(46.9200°N, 121.5900°W)
Time: 21:15:43
(UTC-07:00)
Language:

Cosmos 2058 - Orbit

View from above orbital plane
View from above orbital plane
View from above satellite
View from above satellite

Ground track
Ground track

The orbit data is extracted from the following two-line orbital elements,

1 20465U 90010A   17296.57498022 +.00000398 +00000-0 +31738-4 0  9995
2 20465 082.4869 124.4209 0014603 218.2996 141.7191 14.97599629483447
Epoch (UTC): 23 October 2017 13:47:58
Eccentricity: 0.0014603
inclination: 82.4869°
perigee height: 564 km
apogee height: 584 km
right ascension of ascending node: 124.4209°
argument of perigee: 218.2996°
revolutions per day: 14.97599629
mean anomaly at epoch: 141.7191°
orbit number at epoch: 48344

The dashed part of the orbit path shows where the satellite is in the earth's shadow,  

DLR